Regional Weather Roundup
Issued by NWS Kansas City/Pleasant Hill, MO

Home | Current Version | Previous Version | Text Only | Print | Product List | Glossary On
Versions: 1 2 3 4 5 6 7 8 9 10 11 12 13 14 15 16 17 18 19 20 21 22 23 24 25 26 27 28 29 30 31 32 33 34 35 36 37 38 39 40 41 42 43 44 45 46 47 48 49 50
000
ASUS43 KEAX 232210
RWREAX

WEATHER ROUNDUP FOR EASTERN KANSAS AND NORTHWEST MISSOURI
NATIONAL WEATHER SERVICE KANSAS CITY/PLEASANT HILL MO
500 PM CDT WED AUG 23 2017

KSZ040-057-103>105-MOZ028-029-037-043-232300-
...KANSAS CITY METROPOLITAN AREA...

CITY           SKY/WX    TMP DP  RH WIND       PRES   REMARKS
K.C. INTL      SUNNY     78  55  44 NE7       30.08F
K.C. DOWNTOWN  SUNNY     80  58  46 N5        30.06F
LEES SUMMIT    SUNNY     78  57  48 VRB3      30.08F
OLATHE - IXD   SUNNY     79  56  45 N8        30.08F
OLATHE - OJC   SUNNY     78  55  44 NE8       30.07F
LAWRENCE       SUNNY     80  57  45 VRB3      30.07F

$$

MOZ001>008-011>017-020>025-030>033-038>040-044>046-053-054-232300-
...NORTHERN AND CENTRAL MISSOURI...

CITY           SKY/WX    TMP DP  RH WIND       PRES   REMARKS
ST. JOSEPH     SUNNY     80  59  48 NW5       30.07F
MOSBY          CLEAR     77  52  41 CALM      30.07F
WARRENSBURG    SUNNY     77  54  44 NE5       30.08S
WHITEMAN AFB   MOSUNNY   77  57  49 N7        30.07S
CLINTON        SUNNY     75  57  53 E8        30.08S
SEDALIA        SUNNY     80  56  43 VRB3      30.08F
WARSAW         NOT AVBL
CHILLICOTHE      N/A     79  55  43 NW5       30.08F
KIRKSVILLE     SUNNY     79  50  36 NE8       30.07F

$$

MOZ041-047>049-056>058-063>065-088>090-097-232300-
...EASTERN AND SOUTHERN MISSOURI...

CITY           SKY/WX    TMP DP  RH WIND       PRES   REMARKS
ST. LOUIS INTL MOSUNNY   78  54  43 N10       30.05F
SPIRIT OF STL  MOSUNNY   79  55  43 N6        30.03F
COLUMBIA       SUNNY     78  53  41 VRB5      30.06F
JEFFERSON CITY SUNNY     79  53  40 CALM      30.05F
ROLLA          SUNNY     77  54  44 NE9       30.07F
OSAGE BEACH    SUNNY     77  56  48 NE6       30.07F
SPRINGFIELD    SUNNY     79  56  45 N9        30.05F
BRANSON        MOSUNNY   81  55  41 E6        30.05F
JOPLIN         SUNNY     80  55  42 NE7       30.05F
WEST PLAINS    SUNNY     80  52  37 NE7       30.05F

$$

IAZ060-094-KSZ022-034>040-054-083-096-NEZ052-066-093-232300-
...KANSAS...SOUTHEAST NEBRASKA AND IOWA...

CITY           SKY/WX    TMP DP  RH WIND       PRES   REMARKS
TOPEKA         SUNNY     80  59  48 E6        30.07F
MANHATTAN      SUNNY     81  59  47 E9        30.06F
EMPORIA        SUNNY     79  54  41 E8        30.07F
CHANUTE        SUNNY     80  55  42 E9        30.06F
WICHITA        SUNNY     84  50  30 E12       30.04F
OMAHA          SUNNY     80  56  43 S10       30.06F
LINCOLN        SUNNY     79  57  46 S7        30.07F
FALLS CITY     SUNNY     79  56  45 VRB3      30.07F
LAMONI         SUNNY     80  53  39 N6        30.07F
DES MOINES     MOSUNNY   80  48  32 VRB3      30.06F

$$




USA.gov is the U.S. government's official web portal to all federal, state and local government web resources and services.